Location: Oshawa
(43.9000°N, 78.8670°W)
Time: 23:56:31
(UTC-05:00)

Daily predictions for brighter satellites

Satellite Brightness Start Highest point End
(mag) Time Altitude Azimuth Time Altitude Azimuth Time Altitude Azimuth
Meteor 1-18 Rocket 4.5 17:01:58 10° SSE 17:07:25 51° E 17:13:01 10° NNE
USA 32 4.1 17:03:13 10° S 17:08:21 63° E 17:13:31 10° NNE
SL-8 R/B 3.7 17:04:01 10° WSW 17:08:48 86° SSE 17:13:36 10° ENE
Okean 1 4.1 17:06:34 10° SSE 17:10:14 34° E 17:13:56 10° NNE
EP 2 4.2 17:10:20 10° SW 17:12:55 88° WNW 17:15:45 10° NE
SL-16 R/B 4.4 17:09:19 10° N 17:14:21 27° WNW 17:19:22 10° WSW
SMAP 3.3 17:11:18 10° SE 17:15:44 46° ENE 17:20:11 10° N
Cosmos 1346 Rocket 3.8 17:12:50 10° SSE 17:16:07 27° E 17:19:25 10° NE
Cosmos 1455 Rocket 3.0 17:13:38 10° N 17:18:04 70° E 17:22:29 10° SSE
Genesis I 3.1 17:15:17 10° NNW 17:19:15 80° NE 17:23:08 10° SE
Cosmos 1833 Rocket 3.2 17:18:12 10° NNW 17:23:26 37° NE 17:28:38 10° ESE
ISS -1.7 17:22:35 10° WNW 17:25:22 25° NNW 17:28:02 11° NE
Cosmos 2082 Rocket 2.4 17:25:09 10° NNW 17:30:38 48° ENE 17:36:07 10° SE
IDEFIX/ARIANE 42P 2.5 17:27:35 10° SSE 17:32:44 69° ENE 17:37:54 10° N
SL-8 Rocket 4.4 17:27:44 10° NNW 17:33:50 66° W 17:39:55 10° S
OE (NEXTSAT) 4.4 17:30:18 10° WSW 17:33:52 81° SSE 17:36:46 15° ENE
Thor Agena Rocket 3.6 17:30:33 10° NNE 17:35:45 64° ESE 17:40:59 10° S
Cosmos 1500 3.2 17:35:25 10° N 17:39:14 62° E 17:43:02 10° SSE
Cosmos 1743 3.5 17:35:49 10° NNE 17:39:16 30° ENE 17:42:40 10° SE
Tiangong 1 1.6 17:37:17 10° WSW 17:40:13 47° SSE 17:42:20 17° E
NOSS 2-1 (E) 4.3 17:38:46 10° S 17:42:11 30° ESE 17:44:42 17° ENE
Okean 1-7 Rocket 4.3 17:38:50 10° SSE 17:42:51 33° E 17:46:52 10° NNE
SJ-7 4.4 17:40:28 10° SSE 17:44:42 79° ENE 17:48:58 10° N
Cosmos 2366 rocket 4.4 17:41:07 10° NNW 17:47:26 72° W 17:53:41 10° S
AQUARIUS 4.3 17:46:11 10° S 17:50:41 79° WSW 17:55:12 10° NNW
Cosmos 1484 Rocket 2.9 17:51:11 10° SE 17:54:43 43° ENE 17:58:16 10° N
Meteor 2-21 4.4 17:52:15 10° N 17:58:28 81° E 18:04:35 10° S
USA 234 3.2 17:53:20 15° NE 17:58:57 85° SE 18:05:30 10° SW
Cosmos 1975 3.4 17:55:03 10° NNW 17:59:04 60° W 18:03:02 10° S
Cosmos 1238 Rocket 4.1 17:56:56 10° SW 17:59:37 30° WNW 18:02:33 10° NNW
CZ-4 R/B 4.4 17:55:55 10° SSE 18:00:04 89° SW 18:04:16 10° NNW
Cosmos 1606 Rocket 4.3 18:01:40 10° N 18:05:41 32° ENE 18:09:41 10° SE
CZ-4 R/B 3.0 18:03:21 10° SSW 18:07:14 38° W 18:11:06 10° NNW
Meteor 2-9 Rocket 4.4 18:03:40 10° N 18:08:49 42° ENE 18:13:50 10° SE
Cosmos 2239 Rocket 4.5 18:02:54 10° N 18:09:00 57° ENE 18:15:02 10° SSE
Meteor 1-13 Rocket 4.2 18:03:39 10° S 18:09:20 74° E 18:15:11 10° NNE
MSX 3.9 18:04:28 10° SSE 18:10:13 84° WSW 18:16:01 10° NNW
Cosmos 2369 Rocket 4.2 18:08:36 10° ESE 18:08:55 11° ESE 18:08:55 11° ESE
COSMO-SKYMED 1 2.6 18:09:49 15° NNE 18:13:15 57° E 18:17:31 10° S
Abrixas 3.6 18:10:27 10° WNW 18:13:16 41° SSW 18:15:00 19° SSE
NOSS 3-4 (A) 3.8 18:06:46 10° NNW 18:13:41 62° NE 18:21:00 10° SE
NOSS 3-4 (C) 3.8 18:06:52 10° NNW 18:13:47 61° NE 18:21:06 10° SE
MONITOR-E 4.3 18:11:31 10° S 18:14:41 76° WSW 18:17:54 10° NNW
Meteor 2-4 Rocket 3.8 18:10:03 10° SSE 18:15:08 46° E 18:19:06 16° NNE
CZ-2C R/B 3.6 18:10:37 10° S 18:15:27 47° W 18:20:27 10° NNW
Meteor 2-14 Rocket 4.4 18:10:22 10° N 18:16:34 82° E 18:22:41 10° S
COSMOS 2441 4.5 18:13:47 10° S 18:18:39 79° WSW 18:23:35 10° NNW
CZ-3B DEB 3.0 18:14:55 10° W 18:19:11 55° NNW 18:25:58 20° NE
Cosmos 407 Rocket 3.9 18:15:12 10° N 18:20:00 38° ENE 18:21:59 27° ESE
Cosmos 1821 Rocket 3.8 18:14:57 10° N 18:21:02 68° E 18:27:05 10° SSE
Cosmos 2056 Rocket 3.8 18:16:42 10° S 18:21:47 45° ESE 18:23:51 31° NE
Cosmos 921 Rocket 3.1 18:21:36 10° SSW 18:25:51 74° WNW 18:28:57 19° NNE
Cosmos 1025 Rocket 3.0 18:21:43 10° S 18:26:02 61° E 18:28:11 28° NNE
NOAA 12 4.2 18:21:13 10° SE 18:26:18 52° ENE 18:31:24 10° N
ERBS 4.4 18:25:03 10° NNW 18:26:20 16° N 18:26:20 16° N
Cosmos 1605 Rocket 4.1 18:25:36 10° N 18:31:40 47° ENE 18:37:35 10° SSE
Cosmos 1624 Rocket 3.9 18:29:39 10° S 18:34:46 64° ESE 18:36:48 36° NE
Cosmos 1371 Rocket 4.0 18:35:06 10° SSW 18:40:28 87° ESE 18:43:24 28° NNE
Cosmos 2297 4.3 18:35:28 10° SW 18:40:59 55° WNW 18:45:18 17° NNE
METEOR-M 4.0 18:44:02 10° SSE 18:49:20 71° ENE 18:54:40 10° N
Cosmos 2278 Rocket 4.1 18:46:17 10° WSW 18:50:55 25° NW 18:55:36 10° N
SL-8 R/B 4.0 18:46:58 10° W 18:51:38 50° N 18:52:00 48° N
Cosmos 1666 3.0 18:49:43 10° NNW 18:53:34 65° W 18:57:24 10° S
BREEZE-M R/B 3.9 18:46:53 10° W 18:55:57 59° NNW 18:57:05 48° NNE
GEOS 3 Rocket 3.4 19:00:07 63° ESE 19:00:57 81° NE 19:06:06 10° NW
ISS -0.6 18:59:57 10° NW 19:00:43 14° NW 19:00:43 14° NW
Cosmos 1833 Rocket 4.2 19:02:15 10° NW 19:07:18 35° WSW 19:12:20 10° S
Cosmos 1727 Rocket 3.8 19:04:31 10° S 19:10:40 69° E 19:10:53 68° E
Cosmos 1190 Rocket 4.2 19:05:41 10° NNW 19:10:54 67° WSW 19:15:36 12° S
Cosmos 2082 Rocket 4.3 19:09:47 10° NW 19:14:25 26° WSW 19:19:02 10° SSW
Tiangong 1 4.1 19:13:16 10° W 19:14:01 16° W 19:14:01 16° W
Cosmos 1892 Rocket 4.5 19:14:10 10° SSW 19:17:15 43° SW 19:17:15 43° SW
FALCON 9 R/B 3.6 19:03:14 10° W 19:22:17 48° SSW 19:24:36 38° SSE
USA 234 4.0 19:40:41 38° N 19:41:35 40° NNW 19:47:35 10° W
Cosmos 2369 Rocket 3.9 19:48:40 10° SSW 19:50:46 24° SSW 19:50:46 24° SSW
CZ-3B DEB 4.4 20:48:26 10° WNW 20:53:54 44° NNW 20:53:54 44° NNW
